"TOA5","AWS1","CR1000","7964","CR1000.Std.14","CPU:AWS1_114.CR1","64363","TBL110"
"TIMESTAMP","RECORD","Wind_spd_WVc(1)","Wind_spd_WVc(2)","Air_Temp_Avg","Humidity_Avg","SW_upper_Wm2_Avg","Rain_Tot","Press_Avg","Issui_Tot","Depth_cm","SR50A_Raw","Quality","Ground_Temp_Avg(1)","Ground_Temp_Avg(2)","SW_lower_Wm2_Avg","Albedo_Avg","SWC_per(1)","SWC_per(2)","Period(1)","Period(2)"
"TS","RN","","","","","","","","","","","","","","","","","","",""
"","","WVc","WVc","Avg","Avg","Avg","Tot","Avg","Tot","Smp","Smp","Smp","Avg","Avg","Avg","Avg","Smp","Smp","Smp","Smp"
"2017-08-06 00:00:00",300013,0.102,149.9,20.52,100,0,0,863.5586,0,1.841,3.049,417,23.35,22.13,0.03031475,0,44.93,52.55,32.01,33.92
"2017-08-06 00:10:00",300014,0,0,20.59,100,0,0,863.525,0,1.4,3.053,403,23.36,22.14,0.1970488,0,44.93,52.55,32.01,33.92
"2017-08-06 00:20:00",300015,0.102,120,20.56,100,0,0,863.525,0,-3.011,3.096,209,23.35,22.14,0.09094689,0,44.93,52.55,32.01,33.92
"2017-08-06 00:30:00",300016,0.172,99.7,20.52,100,0,0,863.525,0,1.966,3.048,409,23.27,22.14,0.03789401,0,44.93,52.55,32.01,33.92
"2017-08-06 00:40:00",300017,0.216,117.8,20.5,100,0,0,863.525,0,0.747,3.06,363,23.24,22.14,0.12505,0,44.93,52.55,32.01,33.92
"2017-08-06 00:50:00",300018,0.258,112.9,20.47,100,0,0,863.5207,0,-3.016,3.097,202,23.27,22.14,0.1098924,0,44.93,52.55,32.01,33.92
"2017-08-06 01:00:00",300019,0.216,117.6,20.34,100,0,0,863.5102,0,-2.577,3.093,216,23.25,22.13,0.1023101,0,44.93,52.55,32.01,33.92
"2017-08-06 01:10:00",300020,0.105,113,20.39,100,0,0,863.3607,0,-2.799,3.094,205,23.17,22.13,0.2273571,0,44.93,52.55,32.01,33.92
"2017-08-06 01:20:00",300021,0.059,87.4,20.5,100,0,0,863.426,0,-3.211,3.098,209,23.17,22.13,0.2273559,0,44.93,52.55,32.01,33.92
"2017-08-06 01:30:00",300022,0.299,70.57,20.48,100,0,0,863.525,0,-37.85,3.432,289,23.18,22.13,0.227357,0,44.87,52.55,32,33.92
"2017-08-06 01:40:00",300023,0.028,47.47,20.48,100,0,0,863.5207,0,-37.28,3.427,310,23.18,22.14,0.1629429,0,44.87,52.49,32,33.91
"2017-08-06 01:50:00",300024,0.057,126.6,20.38,100,0,0,863.4828,0,-37.75,3.432,315,23.12,22.14,0.007578847,0,44.93,52.49,32.01,33.91
"2017-08-06 02:00:00",300025,0.008,309.3,20.3,100,0,0,863.2723,0,-39.84,3.453,312,23.08,22.14,0,0,44.93,52.49,32.01,33.91
"2017-08-06 02:10:00",300026,0.053,309.2,20.18,100,0,0,863.2723,0,-43.39,3.487,379,23.09,22.14,0.1174709,0,44.87,52.49,32,33.91
"2017-08-06 02:20:00",300027,0.073,167.3,20.16,100,0,0,863.2702,0,-40.17,3.457,270,23.09,22.13,0.04926143,0,44.93,52.55,32.01,33.92
"2017-08-06 02:30:00",300028,0.118,209.9,20.05,100,0,0,863.2723,0,3.079,3.04,240,23.08,22.13,0.04926089,0,44.93,52.49,32.01,33.91
"2017-08-06 02:40:00",300029,0.078,16.72,19.99,100,0,0,863.2723,0,3.55,3.035,262,23.01,22.13,0.3524075,0,44.93,52.55,32.01,33.92
"2017-08-06 02:50:00",300030,0.047,76.39,20.04,100,0,0,863.2723,0,3.351,3.038,241,23,22.14,0.208416,0,44.87,52.55,32,33.92
"2017-08-06 03:00:00",300031,0.002,138.2,19.87,100,0,0,863.2723,0,3.351,3.038,242,23,22.14,0.01894727,0,44.87,52.55,32,33.92
"2017-08-06 03:10:00",300032,0,0,19.94,100,0,0,863.2723,0,3.236,3.038,240,23.01,22.14,0.223578,0,44.93,52.55,32.01,33.92
"2017-08-06 03:20:00",300033,0.07,99.5,20.1,100,0,0,863.2723,0,3.008,3.04,243,23.01,22.13,0.3296749,0,44.87,52.49,32,33.91
"2017-08-06 03:30:00",300034,0.005,143,20.04,100,0,0,863.2723,0,3.146,3.038,242,23.01,22.12,0.1970476,0,44.87,52.55,32,33.92
"2017-08-06 03:40:00",300035,0,0,20.17,100,0,0,863.2723,0,3.142,3.038,236,22.99,22.13,0.3524116,0,44.87,52.49,32,33.91
"2017-08-06 03:50:00",300036,0.049,295.4,20.21,100,0,0,863.2449,0,2.959,3.04,237,22.92,22.11,0.3827319,0,44.87,52.49,32,33.91
"2017-08-06 04:00:00",300037,0,0,20.31,100,0,0,863.1838,0,-36.24,3.418,360,22.92,22.13,0.3486257,0,44.93,52.49,32.01,33.91
"2017-08-06 04:10:00",300038,0.014,320.4,20.22,100,0,0,863.1691,0,3.684,3.033,341,22.92,22.1,0.2273654,0,44.87,52.49,32,33.91
"2017-08-06 04:20:00",300039,0,0,20.21,100,0,0,863.1712,0,3.193,3.038,260,22.9,22.09,0.1136811,0,44.87,52.49,32,33.91
"2017-08-06 04:30:00",300040,0,0,20.15,100,0,0,863.2555,0,3.273,3.037,234,22.84,22.08,0.08715379,0,44.87,52.49,32,33.91
"2017-08-06 04:40:00",300041,0,0,20.16,100,0,0,863.1733,0,2.881,3.041,232,22.83,22.04,0.1212591,0,44.87,52.49,32,33.91
"2017-08-06 04:50:00",300042,0,0,20.15,100,0.003930092,0,863.2576,0,2.869,3.042,242,22.83,22.02,0.1667308,0.016,44.87,52.49,32,33.91
"2017-08-06 05:00:00",300043,0,0,20.09,100,0.7702885,0,863.2723,0,2.367,3.046,227,22.83,22.03,0.1818872,0.248,44.93,52.49,32.01,33.91
"2017-08-06 05:10:00",300044,0,0,19.97,100,2.542754,0,863.2723,0,2.836,3.043,230,22.83,22.03,0.4206161,0.163,44.87,52.49,32,33.91
"2017-08-06 05:20:00",300045,0,0,19.95,100,5.569005,0,863.2723,0,2.764,3.043,225,22.83,22.04,1.000402,0.18,44.87,52.49,32,33.91
"2017-08-06 05:30:00",300046,0,0,20.05,100,12.08144,0,863.2786,0,2.613,3.044,224,22.78,22.05,2.053888,0.17,44.93,52.49,32.01,33.91
"2017-08-06 05:40:00",300047,0,0,20.1,100,27.25945,0,863.3018,0,2.777,3.042,224,22.72,22.05,4.539705,0.167,44.87,52.49,32,33.91
"2017-08-06 05:50:00",300048,0,0,20.17,100,46.35096,0,863.3839,0,2.343,3.046,213,22.7,22.04,7.347476,0.159,44.93,52.49,32.01,33.91
"2017-08-06 06:00:00",300049,0,0,20.19,100,57.15332,0,863.3649,0,2.448,3.045,218,22.71,22.04,8.525755,0.149,44.87,52.49,32,33.91
"2017-08-06 06:10:00",300050,0.033,109.4,20.28,100,43.66985,0,863.3207,0,2.735,3.042,239,22.73,22.04,5.93395,0.136,44.93,52.49,32.01,33.91
"2017-08-06 06:20:00",300051,0.08,359.9,20.12,100,34.75637,0,863.4386,0,3.661,3.034,390,22.71,22.04,4.941125,0.143,44.87,52.49,32,33.91
"2017-08-06 06:30:00",300052,0.328,317,19.81,100,40.87065,0,863.525,0,8.07,2.993,345,22.65,22.03,5.869381,0.144,44.87,52.49,32,33.91
"2017-08-06 06:40:00",300053,0.246,354.1,19.74,100,53.91698,0,863.527,0,6.104,3.012,348,22.63,22.02,7.994965,0.149,44.87,52.49,32,33.91
"2017-08-06 06:50:00",300054,0.362,23.52,19.66,100,41.04737,0,863.525,0,6.07,3.013,310,22.62,21.99,5.770847,0.141,44.87,52.49,32,33.91
"2017-08-06 07:00:00",300055,0.15,306.8,19.5,100,26.00411,0,863.525,0,-31.05,3.372,383,22.63,21.95,3.77401,0.145,44.87,52.44,32,33.89
"2017-08-06 07:10:00",300056,0.03,286.1,19.58,100,38.83627,0,863.4765,0,7.202,3.002,391,22.65,21.96,5.691482,0.147,44.87,52.49,32,33.91
"2017-08-06 07:20:00",300057,0.045,89.8,19.77,100,58.54052,0,863.3355,0,7.63,2.997,432,22.65,21.95,8.465114,0.144,44.87,52.49,32,33.91
"2017-08-06 07:30:00",300058,0.033,120,19.9,100,109.0204,0,863.2744,0,6.973,3.002,344,22.65,21.95,15.59259,0.143,44.87,52.44,32,33.89
"2017-08-06 07:40:00",300059,0.037,48.84,20.21,100,167.1257,0,863.2723,0,6.052,3.01,260,22.65,21.95,24.32689,0.146,44.87,52.44,32,33.89
"2017-08-06 07:50:00",300060,0.273,116.6,20.38,100,146.3182,0,863.2723,0,8.39,2.987,324,22.64,21.96,21.18964,0.145,44.87,52.44,32,33.89
"2017-08-06 08:00:00",300061,0.263,116.2,20.44,100,170.0428,0,863.2723,0,8.3,2.987,337,22.65,21.95,24.82722,0.146,44.87,52.44,32,33.89
"2017-08-06 08:10:00",300062,0.395,135.3,20.36,100,166.3052,0,863.2723,0,8.76,2.983,304,22.63,21.95,24.17109,0.146,44.87,52.44,32,33.89
"2017-08-06 08:20:00",300063,0.156,111.5,20.6,100,165.6274,0,863.2723,0,9.05,2.978,265,22.62,21.95,23.29552,0.141,44.93,52.44,32.01,33.89
"2017-08-06 08:30:00",300064,0.176,37.6,20.64,99.3,157.6003,0,863.2723,0,9.24,2.978,272,22.61,21.94,22.7647,0.144,44.87,52.44,32,33.89
"2017-08-06 08:40:00",300065,0.136,117.1,20.4,100,85.13893,0,863.2723,0,9.74,2.974,305,22.63,21.91,11.40509,0.134,44.87,52.44,32,33.89
"2017-08-06 08:50:00",300066,0.081,17.7,20.18,100,58.50977,0,863.2723,0,9.78,2.975,346,22.63,21.91,7.521184,0.128,44.82,52.44,31.98,33.89
"2017-08-06 09:00:00",300067,0.016,23.82,20.07,100,66.58281,0,863.2723,0,9.53,2.977,315,22.62,21.92,8.953083,0.134,44.87,52.44,32,33.89
"2017-08-06 09:10:00",300068,0.246,25.71,20.09,100,107.304,0,863.2723,0,9.48,2.978,356,22.62,21.92,15.69332,0.146,44.87,52.44,32,33.89
"2017-08-06 09:20:00",300069,0.033,301,20.09,100,81.58852,0,863.2723,0,8.73,2.985,343,22.62,21.92,11.74149,0.144,44.87,52.44,32,33.89
"2017-08-06 09:30:00",300070,0.029,62.22,20.26,100,66.34716,0,863.2723,0,8.77,2.983,370,22.62,21.93,9.544168,0.144,44.87,52.44,32,33.89
"2017-08-06 09:40:00",300071,0.196,323,20.29,100,140.9629,0,863.2723,0,4.978,3.02,243,22.63,21.93,21.08576,0.15,44.82,52.44,31.98,33.89
"2017-08-06 09:50:00",300072,0.318,47.42,20.43,100,137.1982,0,863.2723,0,5.899,3.01,245,22.61,21.93,20.43405,0.149,44.82,52.44,31.98,33.89
"2017-08-06 10:00:00",300073,0.18,281.1,20.38,100,74.8925,0,863.2723,0,4.254,3.027,232,22.61,21.93,10.27196,0.136,44.82,52.44,31.98,33.89
"2017-08-06 10:10:00",300074,0.068,344.5,20.36,100,79.98849,0,863.2723,0,4.76,3.021,239,22.62,21.93,11.4199,0.142,44.87,52.44,32,33.89
"2017-08-06 10:20:00",300075,0.185,22.8,20.54,100,132.8272,0,863.2723,0,5.728,3.011,241,22.6,21.93,20.16486,0.152,44.87,52.44,32,33.89
"2017-08-06 10:30:00",300076,0.138,37.35,21.02,100,280.5653,0,863.2597,0,6.882,2.997,244,22.57,21.93,43.65985,0.155,44.87,52.44,32,33.89
"2017-08-06 10:40:00",300077,0.38,15.68,21.1,96.6,185.3488,0,863.2429,0,6.583,3.001,250,22.54,21.93,28.06445,0.151,44.87,52.44,32,33.89
"2017-08-06 10:50:00",300078,0.286,335.8,21.02,97.9,266.4071,0,863.1249,0,6.839,2.997,276,22.54,21.93,40.41219,0.152,44.87,52.44,32,33.89
"2017-08-06 11:00:00",300079,0.208,299.8,21.17,95.7,151.2048,0,863.0196,0,5.168,3.014,230,22.53,21.92,21.55463,0.142,44.87,52.38,32,33.88
"2017-08-06 11:10:00",300080,0.09,303.2,21.08,94.7,141.8944,0,863.0196,0,4.824,3.018,242,22.53,21.92,20.30791,0.143,44.82,52.38,31.98,33.88
"2017-08-06 11:20:00",300081,0.046,249.6,21.25,95.2,213.1984,0,863.0133,0,4.966,3.014,241,22.53,21.91,32.37828,0.152,44.87,52.44,32,33.89
"2017-08-06 11:30:00",300082,0.252,97.4,21.72,89.3,306.8582,0,862.8428,0,5.902,3.003,270,22.57,21.91,46.74039,0.152,44.87,52.38,32,33.88
"2017-08-06 11:40:00",300083,0.262,326,22.25,86.7,363.4594,0,862.7838,0,6.672,2.994,269,22.64,21.88,55.53048,0.153,44.87,52.38,32,33.88
"2017-08-06 11:50:00",300084,0.159,289,22.23,86.2,258.8866,0,862.7669,0,4.194,3.017,241,22.62,21.87,37.26585,0.142,44.82,52.38,31.98,33.88
"2017-08-06 12:00:00",300085,0.219,27.18,22.1,85.8,176.1431,0,862.7669,0,6.681,2.996,237,22.6,21.89,24.39803,0.137,44.82,52.38,31.98,33.88
"2017-08-06 12:10:00",300086,0.173,51.33,22.05,86,242.0605,0,862.5901,0,6.138,2.999,240,22.6,21.87,35.7372,0.147,44.77,52.38,31.97,33.88
"2017-08-06 12:20:00",300087,0.166,150.1,22.29,84.3,170.694,0,862.5143,0,5.422,3.005,219,22.6,21.86,23.98521,0.139,44.82,52.38,31.98,33.88
"2017-08-06 12:30:00",300088,0.143,337.7,22.15,85.2,224.4572,0,862.508,0,7.04,2.991,242,22.64,21.82,32.30854,0.142,44.82,52.38,31.98,33.88
"2017-08-06 12:40:00",300089,0.147,60.13,22.5,83,310.8613,0,862.3249,0,7.011,2.988,269,22.7,21.81,46.87487,0.15,44.82,52.38,31.98,33.88
"2017-08-06 12:50:00",300090,0.258,4.363,23.08,79.64,431.281,0,862.2617,0,7.787,2.979,275,22.69,21.82,64.85789,0.148,44.82,52.38,31.98,33.88
"2017-08-06 13:00:00",300091,0.045,116.2,23.11,80.9,250.168,0,862.2449,0,6.146,2.995,260,22.68,21.81,34.62627,0.138,44.77,52.38,31.97,33.88
"2017-08-06 13:10:00",300092,0.201,315.4,22.87,79.75,318.2334,0,862.0364,0,7.048,2.987,318,22.67,21.78,45.92297,0.143,44.77,52.38,31.97,33.88
"2017-08-06 13:20:00",300093,0.134,112.2,23.53,77.45,461.1287,0,862.009,0,7.423,2.979,289,22.67,21.78,68.78184,0.145,44.82,52.38,31.98,33.88
"2017-08-06 13:30:00",300094,0.375,150.7,23.96,75.58,562.9885,0,861.7711,0,8.03,2.974,385,22.76,21.78,84.00501,0.138,44.77,52.32,31.97,33.87
"2017-08-06 13:40:00",300095,0.271,9.14,24.38,73.88,969.7984,0,861.7563,0,-35.81,3.39,250,22.75,21.77,155.9859,0.157,44.77,52.32,31.97,33.87
"2017-08-06 13:50:00",300096,0.212,228.3,24.18,74.7,415.9166,0,861.7394,0,0.987,3.039,214,22.76,21.75,55.68486,0.129,44.72,52.32,31.96,33.87
"2017-08-06 14:00:00",300097,0.152,66.61,23.88,75.12,256.8728,0,861.5773,0,5.276,2.999,248,22.76,21.72,30.82148,0.12,44.72,52.32,31.96,33.87
"2017-08-06 14:10:00",300098,0.064,59.08,23.87,75.64,319.4908,0,861.5037,0,6.563,2.986,272,22.79,21.74,43.00812,0.13,44.72,52.32,31.96,33.87
"2017-08-06 14:20:00",300099,0.359,36.91,23.76,75.03,217.1962,0,861.451,0,5.958,2.994,241,22.83,21.74,26.13516,0.118,44.72,52.32,31.96,33.87
"2017-08-06 14:30:00",300100,0.253,114.7,23.39,76.76,148.412,0,861.3246,0,4.637,3.008,212,22.81,21.77,18.66472,0.125,44.72,52.32,31.96,33.87
"2017-08-06 14:40:00",300101,0.12,144,23.55,77.52,257.6839,0,861.251,0,4.593,3.006,230,22.85,21.75,33.1169,0.127,44.72,52.32,31.96,33.87
"2017-08-06 14:50:00",300102,0.279,346.6,23.89,75.67,424.9846,0,861.1605,0,6.655,2.984,224,22.93,21.77,52.97186,0.131,44.67,52.32,31.94,33.87
"2017-08-06 15:00:00",300103,0.128,347,24.23,73.81,210.6076,0,861.0068,0,4.517,3.006,229,22.89,21.76,28.43193,0.132,44.67,52.27,31.94,33.85
"2017-08-06 15:10:00",300104,0.249,275.1,23.73,75.87,235.1978,0,861.0004,0,7.364,2.98,282,22.94,21.78,32.26608,0.128,44.67,52.27,31.94,33.85
"2017-08-06 15:20:00",300105,0.336,305.3,23.99,77.14,301.2462,0,860.9984,0,7.274,2.978,240,22.99,21.74,47.47337,0.156,44.61,52.27,31.93,33.85
"2017-08-06 15:30:00",300106,0.452,10.01,24.22,75.31,239.4914,0,860.9921,0,6.64,2.983,235,23,21.73,37.36954,0.155,44.61,52.27,31.93,33.85
"2017-08-06 15:40:00",300107,0.53,354.8,24.68,71.78,310.7325,0,860.7646,0,7.673,2.972,221,23.07,21.74,48.43586,0.156,44.61,52.32,31.93,33.87
"2017-08-06 15:50:00",300108,0.302,303,24.19,74.31,224.199,0,860.7499,0,8.28,2.971,241,23.09,21.74,31.79724,0.142,44.61,52.27,31.93,33.85
"2017-08-06 16:00:00",300109,0.366,14.24,23.83,75.71,237.2747,0,860.7457,0,7.968,2.972,233,23.09,21.76,35.20302,0.148,44.61,52.27,31.93,33.85
"2017-08-06 16:10:00",300110,0.129,287.3,23.74,77.05,156.8633,0,860.7436,0,8.63,2.968,254,23.15,21.76,22.06445,0.139,44.56,52.27,31.91,33.85
"2017-08-06 16:20:00",300111,0.248,293.2,23.52,78.59,231.966,0,860.7288,0,8.27,2.972,233,23.15,21.75,35.15312,0.152,44.56,52.27,31.91,33.85
"2017-08-06 16:30:00",300112,0.261,323.1,23.65,78.04,223.4632,0,860.7415,0,8.48,2.97,240,23.17,21.75,32.77339,0.147,44.56,52.27,31.91,33.85
"2017-08-06 16:40:00",300113,0.151,292.7,23.4,79.85,220.0373,0,860.7288,0,8.27,2.972,241,23.15,21.76,32.45083,0.147,44.56,52.27,31.91,33.85
"2017-08-06 16:50:00",300114,0.106,352.3,23.56,78.25,205.2729,0,860.672,0,8.08,2.974,236,23.15,21.77,29.77641,0.145,44.51,52.21,31.9,33.84
"2017-08-06 17:00:00",300115,0.118,268.7,23.46,79.36,121.5907,0,860.5035,0,8.04,2.975,251,23.16,21.79,16.03638,0.129,44.56,52.21,31.91,33.84
"2017-08-06 17:10:00",300116,0.119,17.86,23.44,79.98,102.569,0,860.4719,0,7.299,2.983,249,23.24,21.78,12.81283,0.123,44.51,52.21,31.9,33.84
"2017-08-06 17:20:00",300117,0.046,263.6,23.16,81.6,76.02016,0,860.493,0,6.381,2.992,234,23.32,21.8,9.501792,0.124,44.51,52.21,31.9,33.84
"2017-08-06 17:30:00",300118,0.171,285.3,22.88,83.4,65.2537,0,860.4741,0,7.202,2.987,254,23.31,21.83,7.800687,0.118,44.51,52.21,31.9,33.84
"2017-08-06 17:40:00",300119,0.289,17.86,22.64,83.4,61.08811,0,860.632,0,7.096,2.988,257,23.3,21.87,7.785466,0.126,44.51,52.21,31.9,33.84
"2017-08-06 17:50:00",300120,0.374,35.87,22.49,84,56.2121,0,860.8005,0,7.584,2.984,262,23.3,21.87,7.690774,0.13,44.51,52.21,31.9,33.84
"2017-08-06 18:00:00",300121,0.367,43.88,22.5,83.8,55.97165,0,860.9163,0,5.86,3.001,243,23.29,21.89,8.156661,0.124,44.51,52.21,31.9,33.84
"2017-08-06 18:10:00",300122,0.446,38.79,22.13,85.3,9.674114,0,860.9941,0,7.62,2.986,297,23.31,21.9,0.295519,0.021,44.46,52.21,31.89,33.84
"2017-08-06 18:20:00",300123,0.084,25.05,21.96,86.3,10.55453,0,861.1668,0,8.7,2.976,390,23.32,21.91,0.7577504,0.071,44.46,52.27,31.89,33.85
"2017-08-06 18:30:00",300124,0.232,44.04,21.88,87.1,11.88276,0,861.1563,0,8.9,2.975,473,23.32,21.92,1.360167,0.112,44.46,52.21,31.89,33.84
"2017-08-06 18:40:00",300125,0.461,139.2,21.56,88.2,10.33457,0,861.2321,0,-32.95,3.379,229,23.34,21.92,1.284397,0.121,44.46,52.16,31.89,33.83
"2017-08-06 18:50:00",300126,0.385,114,21.38,88.1,2.102322,0,861.251,0,8.52,2.981,528,23.36,21.93,0.0985096,0.027,44.46,52.16,31.89,33.83
"2017-08-06 19:00:00",300127,0.523,110.3,21.14,88.7,0.02750794,0,861.251,0,3.231,3.033,261,23.38,21.94,0,0,44.46,52.16,31.89,33.83
"2017-08-06 19:10:00",300128,0.53,91,21.09,90,0,0,861.3689,0,2.794,3.037,254,23.38,21.94,0.07199243,0,44.41,52.16,31.87,33.83
"2017-08-06 19:20:00",300129,0.275,108.1,21.09,90.6,0,0,861.4384,0,3.107,3.034,245,23.38,21.94,0.1060932,0,44.46,52.16,31.89,33.83
"2017-08-06 19:30:00",300130,0.145,108.2,21.06,91.1,0,0,861.5499,0,3.208,3.033,252,23.39,21.94,0.128828,0,44.46,52.16,31.89,33.83
"2017-08-06 19:40:00",300131,0.177,15.44,21.04,91.6,0,0,861.512,0,3.254,3.033,262,23.34,21.94,0.2197676,0,44.41,52.16,31.87,33.83
"2017-08-06 19:50:00",300132,0.259,24.55,21.05,92.1,0,0,861.6847,0,3.618,3.029,326,23.31,21.94,0.2273487,0,44.41,52.16,31.87,33.83
"2017-08-06 20:00:00",300133,0.565,144.7,20.86,93.5,0,0,861.7542,0,3.642,3.031,261,23.27,21.92,0.08715203,0,44.41,52.21,31.87,33.84
"2017-08-06 20:10:00",300134,0.746,105.8,20.56,92,0,0,861.7963,0,3.967,3.029,247,23.32,21.92,0.2197762,0,44.41,52.21,31.87,33.84
"2017-08-06 20:20:00",300135,0.538,93.3,20.32,91.9,0,0,861.9963,0,4.712,3.023,252,23.34,21.92,0.2273477,0,44.41,52.21,31.87,33.84
"2017-08-06 20:30:00",300136,0.552,111.4,20.06,93.4,0,0,862.009,0,4.354,3.028,279,23.33,21.97,0.2273437,0,44.41,52.21,31.87,33.84
"2017-08-06 20:40:00",300137,0.558,144,19.69,95.1,0,0,862.009,0,3.777,3.036,259,23.29,21.99,0.3220825,0,44.41,52.21,31.87,33.84
"2017-08-06 20:50:00",300138,0.247,126.2,19.26,97,0,0.5,862.0006,0,-37.6,3.437,214,23.25,22.01,0.7805927,0,44.41,52.21,31.87,33.84
"2017-08-06 21:00:00",300139,0.087,174.3,19.07,99.8,0,0,862.0069,0,-37.16,3.434,204,23.27,22.02,0.8526123,0,44.41,52.16,31.87,33.83
"2017-08-06 21:10:00",300140,0.05,145.6,19.04,100,0,0,861.8216,0,3.934,3.038,470,23.27,22.03,1.246729,0,44.41,52.21,31.87,33.84
"2017-08-06 21:20:00",300141,0,0,18.82,100,0,0,861.7804,0,-36.83,3.432,211,23.26,22.03,1.15201,0,44.41,52.16,31.87,33.83
"2017-08-06 21:30:00",300142,0,0,18.79,100,0,0,862.0685,0,3.932,3.038,453,23.23,22.02,1.246756,0,44.41,52.16,31.87,33.83
"2017-08-06 21:40:00",300143,0.033,240.6,18.82,100,0,0,862.2607,0,4.862,3.029,463,23.19,22.01,1.023175,0,44.41,52.16,31.87,33.83
"2017-08-06 21:50:00",300144,0.09,240.2,18.76,100,0,0,862.2577,0,-35.71,3.422,228,23.19,22,1.004228,0,44.41,52.16,31.87,33.83
"2017-08-06 22:00:00",300145,0.041,186.1,18.76,100,0,0,862.2487,0,-37.83,3.442,223,23.14,22,1.178547,0,44.41,52.16,31.87,33.83
"2017-08-06 22:10:00",300146,0,0,18.59,100,0,0,862.2283,0,-35.3,3.419,222,23.15,22,0.9170689,0,44.41,52.16,31.87,33.83
"2017-08-06 22:20:00",300147,0,0,18.44,100,0,0,862.0864,0,-36.33,3.43,212,23.11,22.02,0.833699,0,44.35,52.16,31.86,33.83
"2017-08-06 22:30:00",300148,0,0,18.26,100,0,0,862.0471,0,4.363,3.037,441,23.08,22.02,0.7465395,0,44.35,52.16,31.86,33.83
"2017-08-06 22:40:00",300149,0,0,18.24,100,0,0,862.039,0,4.682,3.033,364,23.07,22.02,1.170968,0,44.35,52.16,31.86,33.83
"2017-08-06 22:50:00",300150,0.01,10.87,18.46,100,0,0,862.2238,0,5.416,3.025,368,23.06,22.04,1.477921,0,44.35,52.16,31.86,33.83
"2017-08-06 23:00:00",300151,0.036,7.571,18.47,100,0,0,862.2648,0,5.152,3.028,319,23.02,22.04,1.32255,0,44.41,52.16,31.87,33.83
"2017-08-06 23:10:00",300152,0.164,15.32,18.53,100,0.3065621,0,862.2661,0,4.852,3.03,273,23.05,22.05,0.8981212,2.274,44.41,52.16,31.87,33.83
"2017-08-06 23:20:00",300153,0.396,39.69,18.6,100,0,0,862.2779,0,6.403,3.015,269,23.04,22.06,0.602537,0,44.41,52.16,31.87,33.83
"2017-08-06 23:30:00",300154,0.582,80.3,18.63,100,0,0,862.3079,0,6.965,3.01,269,22.95,22.06,0.553273,0,44.35,52.16,31.86,33.83
"2017-08-06 23:40:00",300155,0.536,104.1,18.57,100,0,0,862.3359,0,6.862,3.011,270,22.94,22.06,0.6821174,0,44.35,52.16,31.86,33.83
"2017-08-06 23:50:00",300156,0.428,165.3,18.47,100,0,0,862.2612,0,6.989,3.01,272,22.93,22.06,0.6783278,0,44.35,52.16,31.86,33.83
